Weather History for Prestonsburg, KY

Change the Weather History Date:

Monday, April 8, 2013

  Actual Average (KJKL) Record (KJKL)
Temperature  
Mean Temperature 68 °F 55 °F  
Max Temperature 76 °F 66 °F 87 °F (2001)
Min Temperature 59 °F 44 °F 21 °F (2007)
Degree Days  
Heating Degree Days 0 11  
Month to date heating degree days 95  
Since 1 July heating degree days 3948  
Cooling Degree Days 2 1  
Month to date cooling degree days 8  
Year to date cooling degree days 15  
Growing Degree Days 18 (Base 50)    
Moisture  
Dew Point 45 °F    
Average Humidity 44    
Maximum Humidity 52    
Minimum Humidity 37    
Precipitation  
Precipitation 0.00 in 0.13 in 1.00 in (2011)
Month to date precipitation 0.99  
Year to date precipitation 12.47  
Snow  
Snow 0.00 in 0.10 in - ()
Month to date snowfall 0.5  
Since 1 July snowfall 23.0  
Snow Depth -    
Sea Level Pressure  
Sea Level Pressure 30.03 in    
Wind  
Wind Speed 7 mph (SSW)    
Max Wind Speed 23 mph    
Max Gust Speed 31 mph    
Visibility 10 miles    
Events      
T = Trace of Precipitation, MM = Missing Value Source: NWS Daily Summary

Daily Weather History Graph

Daily Weather History Graph

Search for Another Location

Airport:

Trip Planner

Search our weather history database for the weather conditions in past years. The results will help you decide how hot, cold, wet, or windy it might be!

Date:

Astronomy

Apr. 08, 2013 Rise Set
Actual Time 7:05 AM EDT 8:00 PM EDT
Civil Twilight 6:38 AM EDT 8:26 PM EDT
Nautical Twilight 6:06 AM EDT 8:58 PM EDT
Astronomical Twilight 5:34 AM EDT 9:31 PM EDT
Moon 5:53 AM EDT (4/8) 6:34 PM EDT (4/8)
Length of Visible Light 13h 48m
Length of Day
12h 54m
Waning Crescent, 3% of the Moon is Illuminated
Apr 8
Waning Crescent
Apr 10
New
Apr 18
First Quarter
Apr 25
Full
May 2
Last Quarter

Hourly Weather History & Observations

Time (EDT) Temp. Dew Point Humidity Pressure Visibility Wind Dir Wind Speed Gust Speed Precip Events Conditions
12:15 AM 64.9 °F 39.2 °F 39% 30.04 in 10.0 mi SSW 3.5 mph - N/A   Overcast
12:35 AM 64.4 °F 39.4 °F 40% 30.04 in 10.0 mi SSW 3.5 mph - N/A   Overcast
12:55 AM 63.7 °F 39.4 °F 41% 30.04 in 10.0 mi SW 4.6 mph - N/A   Overcast
1:15 AM 64.0 °F 38.5 °F 39% 30.04 in 10.0 mi SSW 3.5 mph - N/A   Overcast
1:35 AM 63.5 °F 38.7 °F 40% 30.04 in 10.0 mi SSW 4.6 mph - N/A   Overcast
1:55 AM 63.5 °F 38.1 °F 39% 30.04 in 10.0 mi SSW 4.6 mph - N/A   Overcast
2:15 AM 62.1 °F 39.0 °F 43% 30.04 in 10.0 mi SSW 4.6 mph - N/A   Overcast
2:35 AM 62.8 °F 38.3 °F 40% 30.04 in 10.0 mi SSW 4.6 mph - N/A   Overcast
2:55 AM 62.6 °F 38.3 °F 41% 30.04 in 10.0 mi SSW 4.6 mph - N/A   Overcast
3:15 AM 62.1 °F 38.1 °F 41% 30.04 in 10.0 mi Calm Calm - N/A   Overcast
3:35 AM 61.3 °F 38.5 °F 43% 30.03 in 10.0 mi Calm Calm - N/A   Overcast
3:55 AM 61.0 °F 39.6 °F 45% 30.03 in 10.0 mi South 3.5 mph - N/A   Overcast
4:15 AM 60.3 °F 40.3 °F 48% 30.03 in 10.0 mi Calm Calm - N/A   Overcast
4:35 AM 59.4 °F 40.1 °F 49% 30.03 in 10.0 mi SSE 4.6 mph - N/A   Overcast
4:55 AM 59.9 °F 39.9 °F 48% 30.03 in 10.0 mi SSE 5.8 mph - N/A   Scattered Clouds
5:15 AM 59.9 °F 40.3 °F 48% 30.03 in 10.0 mi South 5.8 mph - N/A   Scattered Clouds
5:35 AM 60.3 °F 40.6 °F 48% 30.03 in 10.0 mi SSE 6.9 mph - N/A   Mostly Cloudy
5:55 AM 59.9 °F 40.6 °F 49% 30.03 in 10.0 mi South 6.9 mph - N/A   Scattered Clouds
6:15 AM 59.9 °F 41.0 °F 50% 30.03 in 10.0 mi South 6.9 mph - N/A   Scattered Clouds
6:35 AM 59.5 °F 41.2 °F 51% 30.04 in 10.0 mi South 5.8 mph - N/A   Mostly Cloudy
6:55 AM 59.2 °F 41.2 °F 51% 30.04 in 10.0 mi South 6.9 mph - N/A   Scattered Clouds
7:15 AM 59.2 °F 41.5 °F 52% 30.04 in 10.0 mi South 8.1 mph - N/A   Clear
7:35 AM 59.7 °F 41.9 °F 52% 30.05 in 10.0 mi South 6.9 mph - N/A   Scattered Clouds
7:55 AM 60.3 °F 42.4 °F 52% 30.06 in 10.0 mi South 8.1 mph - N/A   Scattered Clouds
8:15 AM 61.3 °F 43.0 °F 51% 30.06 in 10.0 mi South 8.1 mph - N/A   Clear
8:35 AM 62.2 °F 43.5 °F 50% 30.06 in 10.0 mi South 9.2 mph - N/A   Scattered Clouds
8:55 AM 63.3 °F 43.9 °F 49% 30.06 in 10.0 mi South 9.2 mph - N/A   Scattered Clouds
9:15 AM 64.4 °F 44.6 °F 49% 30.06 in 10.0 mi South 9.2 mph - N/A   Mostly Cloudy
9:35 AM 65.3 °F 45.0 °F 48% 30.06 in 10.0 mi South 9.2 mph - N/A   Overcast
9:55 AM 66.7 °F 45.7 °F 47% 30.06 in 10.0 mi SSW 10.4 mph - N/A   Overcast
10:15 AM 67.5 °F 46.0 °F 46% 30.06 in 10.0 mi South 8.1 mph - N/A   Overcast
10:35 AM 68.2 °F 46.8 °F 46% 30.06 in 10.0 mi SW 11.5 mph - N/A   Overcast
10:55 AM 69.4 °F 47.7 °F 46% 30.06 in 10.0 mi SW 10.4 mph - N/A   Mostly Cloudy
11:15 AM 70.7 °F 48.4 °F 45% 30.05 in 10.0 mi SSW 12.7 mph 23.0 mph N/A   Mostly Cloudy
11:35 AM 70.9 °F 48.7 °F 45% 30.05 in 10.0 mi SSW 13.8 mph 23.0 mph N/A   Overcast
11:55 AM 72.3 °F 49.3 °F 44% 30.05 in 10.0 mi SW 10.4 mph 19.6 mph N/A   Overcast
12:15 PM 73.8 °F 49.3 °F 42% 30.04 in 10.0 mi SSW 11.5 mph 17.3 mph N/A   Overcast
12:35 PM 73.6 °F 48.9 °F 42% 30.03 in 10.0 mi SSW 9.2 mph - N/A   Overcast
12:55 PM 73.9 °F 48.4 °F 40% 30.03 in 10.0 mi SSW 12.7 mph 23.0 mph N/A   Overcast
1:15 PM 73.0 °F 48.2 °F 41% 30.03 in 10.0 mi SW 17.3 mph 20.7 mph N/A   Overcast
1:35 PM 74.1 °F 47.7 °F 39% 30.01 in 10.0 mi SW 17.3 mph 21.9 mph N/A   Mostly Cloudy
1:55 PM 76.6 °F 48.2 °F 37% 30.01 in 10.0 mi SW 13.8 mph 31.1 mph N/A   Mostly Cloudy
2:15 PM 75.6 °F 47.5 °F 37% 30.00 in 10.0 mi SSW 23.0 mph 29.9 mph N/A   Mostly Cloudy
2:35 PM 75.2 °F 46.9 °F 37% 30.00 in 10.0 mi SSW 15.0 mph 21.9 mph N/A   Overcast
2:55 PM 74.7 °F 46.9 °F 37% 30.00 in 10.0 mi SW 9.2 mph 16.1 mph N/A   Overcast
3:15 PM 75.4 °F 47.3 °F 37% 30.00 in 10.0 mi SW 12.7 mph 26.5 mph N/A   Overcast
3:35 PM 75.4 °F 47.8 °F 38% 29.99 in 10.0 mi SW 12.7 mph 16.1 mph N/A   Mostly Cloudy
3:55 PM 75.2 °F 48.2 °F 38% 29.99 in 10.0 mi SSW 9.2 mph 17.3 mph N/A   Overcast
4:15 PM 74.3 °F 47.8 °F 39% 29.99 in 10.0 mi SW 10.4 mph 20.7 mph N/A   Overcast
4:35 PM 76.5 °F 48.7 °F 38% 29.98 in 10.0 mi SW 12.7 mph - N/A   Mostly Cloudy
4:55 PM 75.4 °F 48.7 °F 39% 29.98 in 10.0 mi SW 10.4 mph 17.3 mph N/A   Scattered Clouds
5:15 PM 74.3 °F 48.4 °F 40% 29.99 in 10.0 mi WSW 10.4 mph 17.3 mph N/A   Mostly Cloudy
5:35 PM 74.8 °F 48.6 °F 39% 29.98 in 10.0 mi SSW 15.0 mph 19.6 mph N/A   Mostly Cloudy
5:55 PM 74.7 °F 48.6 °F 40% 29.98 in 10.0 mi WSW 12.7 mph - N/A   Scattered Clouds
6:15 PM 73.6 °F 48.2 °F 41% 29.99 in 10.0 mi SW 8.1 mph - N/A   Scattered Clouds
6:35 PM 73.4 °F 48.2 °F 41% 29.99 in 10.0 mi WSW 11.5 mph 18.4 mph N/A   Mostly Cloudy
6:55 PM 73.2 °F 48.2 °F 41% 29.99 in 10.0 mi SW 9.2 mph 17.3 mph N/A   Overcast
7:15 PM 72.5 °F 48.4 °F 42% 29.99 in 10.0 mi WSW 6.9 mph - N/A   Scattered Clouds
7:35 PM 72.1 °F 48.6 °F 43% 29.99 in 10.0 mi SW 8.1 mph - N/A   Clear
7:55 PM 71.8 °F 48.4 °F 43% 29.99 in 10.0 mi SW 5.8 mph - N/A   Clear
8:15 PM 71.2 °F 48.6 °F 45% 30.00 in 10.0 mi WSW 3.5 mph - N/A   Clear
8:35 PM 71.1 °F 48.4 °F 44% 30.00 in 10.0 mi SW 3.5 mph - N/A   Clear
8:55 PM 70.9 °F 48.2 °F 44% 30.00 in 10.0 mi SW 3.5 mph - N/A   Scattered Clouds
9:15 PM 70.7 °F 48.2 °F 45% 30.01 in 10.0 mi SW 4.6 mph - N/A   Scattered Clouds
9:35 PM 69.6 °F 48.4 °F 47% 30.02 in 10.0 mi West 3.5 mph - N/A   Scattered Clouds
9:55 PM 69.3 °F 48.4 °F 47% 30.03 in 10.0 mi SW 3.5 mph - N/A   Clear
10:15 PM 68.5 °F 48.6 °F 49% 30.04 in 10.0 mi WSW 3.5 mph - N/A   Clear
10:35 PM 68.0 °F 48.6 °F 50% 30.04 in 10.0 mi WSW 3.5 mph - N/A   Clear
10:55 PM 68.5 °F 48.7 °F 49% 30.04 in 10.0 mi SW 4.6 mph - N/A   Clear
11:15 PM 68.5 °F 48.9 °F 49% 30.05 in 10.0 mi SW 5.8 mph - N/A   Clear
11:35 PM 67.8 °F 48.9 °F 51% 30.05 in 10.0 mi SSW 5.8 mph - N/A   Clear
11:55 PM 68.2 °F 49.1 °F 50% 30.06 in 10.0 mi SW 4.6 mph - N/A   Clear